Regional Weather Roundup
Issued by NWS Green Bay, WI

Home | Current Version | Previous Version | Text Only | Print | Product List | Glossary On
Versions: 1 2 3 4 5 6 7 8 9 10 11 12 13 14 15 16 17 18 19 20 21 22 23 24 25 26 27 28 29 30 31 32 33 34 35 36 37 38 39 40 41 42 43 44 45 46 47 48 49 50
000
ASUS43 KGRB 162100
RWRGRB

NORTH-CENTRAL AND NORTHEAST WISCONSIN REGIONAL WEATHER ROUNDUP
NATIONAL WEATHER SERVICE GREEN BAY WI
300 PM CST SAT DEC 16 2017

WIZ005-009-010>012-018-019-162200-
NORTH CENTRAL WISCONSIN

CITY           SKY/WX    TMP DP  RH WIND       PRES   REMARKS
IRONWOOD       FLURRIES  20  12  71 SE3       30.00R
MANITOWISH WTR NOT AVBL
ARBOR VITAE    NOT AVBL
EAGLE RIVER    CLOUDY    19   8  63 E6        29.96R
LAND O LAKES   CLOUDY    19   9  66 SE3       29.99R
RHINELANDER    CLOUDY    18  10  71 E7        29.97R WCI   9
PHILLIPS       CLOUDY    18  10  72 E5        29.96R
ANTIGO         NOT AVBL
TOMAHAWK       NOT AVBL
MERRILL        CLOUDY    21  13  70 E6        29.96S
$$

WIZ013-073-162200-
NORTHEAST WISCONSIN

CITY           SKY/WX    TMP DP  RH WIND       PRES   REMARKS
IRON MOUNTAIN  CLOUDY    20  11  68 E5        30.01R
MARINETTE      FLURRIES  24  20  84 NE7       30.05R
$$

WIZ017-030-035>037-045-162200-
CENTRAL WISCONSIN

CITY           SKY/WX    TMP DP  RH WIND       PRES   REMARKS
MEDFORD        NOT AVBL
WAUSAU         CLOUDY    21  14  74 E8        29.95S
MOSINEE        CLOUDY    21  16  79 E8        29.97R
MARSHFIELD     CLOUDY    23  17  78 E9        29.93S
WISC RAPIDS    CLOUDY    23  17  78 E12       29.98R
STEVENS POINT  NOT AVBL
WAUPACA        CLOUDY    26  17  68 NE6       30.00R
SHAWANO        CLOUDY    25  18  76 NE8       30.00S
CLINTONVILLE   NOT AVBL
WAUTOMA        CLOUDY    25  20  81 NE10      29.98R
$$

WIZ038-039-048-051-162200-
FOX VALLEY

CITY           SKY/WX    TMP DP  RH WIND       PRES   REMARKS
NWS GREEN BAY  CLOUDY    27  19  72 NE8       30.01R
APPLETON       CLOUDY    27  18  69 NE7       29.97R
OSHKOSH        CLOUDY    26  21  81 NE12      29.98R
FOND DU LAC    CLOUDY    31  23  72 E9        29.98R
$$

WIZ022-050-052-162200-
EAST CENTRAL WISCONSIN

CITY           SKY/WX    TMP DP  RH WIND       PRES   REMARKS
EPHRAIM        NOT AVBL
WASHINGTON ISL NOT AVBL
STURGEON BAY   CLOUDY    27  22  81 E8        30.01R
MANITOWOC      CLOUDY    29  22  75 E10       30.01R
SHEBOYGAN      CLOUDY    29  23  78 NE12      29.98R
$$

LMZ563-521-522-541>543-162200-
LAKESHORE

STATION/POSITION TIME  TEMP    WIND        PRES    VSBY  WAVE
                       AIR SEA DIR/SP/G                  HT/PER
                 (UTC) (F)     (DEG/KT/KT) (MB)    (MI)  (FT/S)
SHEBOYGAN LKSHOR 2000   31      60/ 14/ 15 1015.5R
KEWAUNEE LKSHORE 2030   30      90/  5/  8 1015.3R
NORTHPORT PIER   2040   25      90/ 12/ 16 1017.6R
MENOMINEE LKSHOR 2030   27      50/ 11/ 16 1016.3R
$$



USA.gov is the U.S. government's official web portal to all federal, state and local government web resources and services.